Retour au catalogue

BREEZE-M DEB

ActifHEO
NORAD 32037·DEBRIS·🇷🇺 Russia

Lancé Feb 28, 2006 depuis Baikonur Cosmodrome

Loading…

Prochains Passages (prochaines 24 heures)

TLE

FraisSource: Space-Track

Époque: Sep 13, 2026, 06:15 UTC

1 32037U 06006Q   26256.26060417  .00002928  00000-0  14980-2 0  9999
2 32037  51.6280 219.1633 4768429 162.0686 223.3663  5.89568211397585

Suivez BREEZE-M DEB en temps réel avec AllMySat

Download on the App Store